Regional Weather Roundup
Issued by NWS New Orleans/Baton Rouge, LA

Home | Current Version | Previous Version | Graphics & Text | Print | Product List | Glossary On
Versions: 1 2 3 4 5 6 7 8 9 10 11 12 13 14 15 16 17 18 19 20 21 22 23 24 25 26 27 28 29 30 31 32 33 34 35 36 37 38 39 40 41 42 43 44 45 46 47 48 49 50
283
ASUS44 KLIX 011410
RWRLIX
NEW ORLEANS REGIONAL WEATHER ROUNDUP
NATIONAL WEATHER SERVICE NEW ORLEANS LA
800 AM CST SUN MAR 01 2015

NOTE: "FAIR" INDICATES FEW OR NO CLOUDS BELOW 12,000 FEET WITH NO
      SIGNIFICANT WEATHER AND/OR OBSTRUCTIONS TO VISIBILITY.
      SKY/WX - SKY CONDITION AND SIGNIFICANT WEATHER.
      TMP - AIR TEMPERATURE.     DP    - DEWPOINT TEMPERATURE.
      RH  - RELATIVE HUMIDITY.   PRES  - PRESSURE.
      HI  - HEAT INDEX.          WCI   - WIND CHILL INDEX.

*  THESE STATIONS ARE NOT NWS OR FAA STATIONS AND ARE NOT UNDER
   NWS QUALITY CONTROL.

LAZ038-040-048-061>063-065>067-069-011500-
SOUTHEAST LOUISIANA

CITY           SKY/WX    TMP DP  RH WIND       PRES   REMARKS
N.O. AUDUBON     N/A     56  56 100 MISG        N/A
N.O. INTL ARPT DRZL/FOG  56  55  97 E6        30.32R VSB 1/4
N.O. LAKEFRONT FOG       56  53  90 E13       30.33R VSB 1/2
SLIDELL        FOG       54  54 100 E6        30.33R VSB 1/2
BATON ROUGE    CLOUDY    56  55  97 E13       30.29R FOG
BOOTHVILLE     CLOUDY    64  62  93 E7        30.31R
BELLE CHASSE   FOG       59  56  89 E8        30.31R VSB 1/2
BOGALUSA*        N/A     57  53  86 SE6       30.36R
GALLIANO*      CLOUDY    56  55  97 E7        30.30S
NEW ROADS*     CLOUDY    57  56  95 E12       30.28F
GONZALES*      FOG       56  56 100 E5        30.29F VSB 1/2
HAMMOND*       CLOUDY    57  54  88 E7        30.34S FOG
HOUMA*         CLOUDY    63  61  94 E12       30.30R FOG
PORT FOURCHON* PTSUNNY   63  63 100 E9        30.33R FOG

$$

MSZ070-080>082-011500-
SOUTHERN MISSISSIPPI

CITY           SKY/WX    TMP DP  RH WIND       PRES   REMARKS
MCCOMB         CLOUDY    55  53  93 SE8       30.32S FOG
GULFPORT       FOG       53  52  96 E12       30.35S VSB 1
BILOXI         CLOUDY    53  53 100 E7        30.35R FOG
PASCAGOULA     CLOUDY    52  51  97 E7        30.37R FOG
STENNIS ARPT*  FOG       54  52  94 E9        30.35R VSB 1

$$

COASTAL OBSERVATIONS
LAKE AND NEARSHORE STATIONS

STATION/POSITION TIME  TEMP    WIND        PRES    WAVE
                       AIR SEA DIR/SP/G            HT/PER
                 (UTC) (F)     (DEG/KT/KT) (MB)    (FT/S)
PASCAGOULA       1400   52      70/ 13/ 17 1027.5
WAVELAND YACHT   1400   53 52  100/ 12/ 16 1027.1
GRAND ISLE       1400   62 57  100/  7/ 11 1026.1
SOUTHWEST PASS   1400   60 47   80/ 14/ 15 1026.5
NEW CANAL        1400   55      90/  3/  7 1027.0
SHELL BEACH      1400   55 53   80/ 13/ 14 1026.4

OFFSHORE STATIONS

STATION/POSITION TIME  TEMP    WIND        PRES    WAVE
                       AIR SEA DIR/SP/G            HT/PER
                 (UTC) (F)     (DEG/KT/KT) (MB)    (FT/S)
64 S DAUPHIN ISL 1309   66 71  100/ 17/ 21 1027.0    6/ 7

$$




USA.gov is the U.S. government's official web portal to all federal, state and local government web resources and services.